Plymouth, NH

5:24 AM EDT on August 18, 2017 (GMT -0400)
Plymouth

Weather History for K1P1 - March, 2014

Change the Weather History Date:

Saturday, March 15, 2014

  Actual Average (KLCI) Record (KLCI)
Temperature  
Mean Temperature 32 °F -  
Max Temperature 44 °F 40 °F 57 °F (1996)
Min Temperature 20 °F 23 °F 1 °F (1993)
Degree Days  
Heating Degree Days 33    
Moisture  
Dew Point 25 °F    
Average Humidity 74    
Maximum Humidity 93    
Minimum Humidity 48    
Precipitation  
Precipitation 0.04 in - - ()
Sea Level Pressure  
Sea Level Pressure 29.70 in    
Wind  
Wind Speed 3 mph (West)    
Max Wind Speed 18 mph    
Max Gust Speed 34 mph    
Visibility 10 miles    
Events Rain , Snow    
Averages and records for this station are not official NWS values.
T = Trace of Precipitation, MM = Missing Value Source: NWS Daily Summary

Daily Weather History Graph

Daily Weather History Graph

Search for Another Location

Airport or City:

Trip Planner

Search our weather history database for the weather conditions in past years. The results will help you decide how hot, cold, wet, or windy it might be!

Date:

Astronomy

Mar. 15, 2014 Rise Set
Actual Time 6:59 AM EDT 6:53 PM EDT
Civil Twilight 6:30 AM EDT 7:21 PM EDT
Nautical Twilight 5:57 AM EDT 7:55 PM EDT
Astronomical Twilight 5:23 AM EDT 8:29 PM EDT
Moon 6:09 PM EDT (3/15) 6:10 AM EDT (3/15)
Length of Visible Light 12h 51m
Length of Day
11h 53m
Waxing Gibbous, 99% of the Moon is Illuminated
Mar 15
Waxing Gibbous
Mar 16
Full
Mar 23
Last Quarter
Mar 30
New
Apr 7
First Quarter

Hourly Weather History & Observations

Time (EDT) Temp. Windchill Dew Point Humidity Pressure Visibility Wind Dir Wind Speed Gust Speed Precip Events Conditions
12:15 AM 20.8 °F - 19.2 °F 93% 29.84 in 10.0 mi Calm Calm - N/A   Unknown
12:35 AM 21.2 °F - 19.4 °F 93% 29.83 in 10.0 mi Calm Calm - N/A   Unknown
12:55 AM 21.6 °F - 19.6 °F 92% 29.81 in 10.0 mi Calm Calm - N/A   Unknown
1:15 AM 21.4 °F - 19.4 °F 92% 29.81 in 10.0 mi Calm Calm - N/A   Unknown
1:35 AM 21.6 °F - 19.4 °F 91% 29.80 in 10.0 mi Calm Calm - N/A   Unknown
1:55 AM 21.7 °F - 19.8 °F 92% 29.79 in 10.0 mi Calm Calm - N/A   Unknown
2:15 AM 22.1 °F - 20.1 °F 92% 29.78 in 10.0 mi Calm Calm - N/A   Unknown
2:35 AM 22.6 °F - 20.3 °F 91% 29.77 in 10.0 mi Calm Calm - N/A   Unknown
2:55 AM 22.8 °F - 20.3 °F 90% 29.76 in 10.0 mi Calm Calm - N/A   Unknown
3:15 AM 22.8 °F 18.2 °F 20.3 °F 90% 29.75 in 10.0 mi East 3.5 mph - N/A   Unknown
3:35 AM 23.0 °F - 20.7 °F 91% 29.74 in 10.0 mi Calm Calm - N/A   Unknown
3:55 AM 23.0 °F - 20.5 °F 90% 29.73 in 10.0 mi Calm Calm - N/A   Unknown
4:15 AM 23.0 °F - 20.3 °F 89% 29.71 in 10.0 mi Calm Calm - N/A   Unknown
4:35 AM 23.0 °F - 20.3 °F 89% 29.71 in 10.0 mi Calm Calm - N/A   Unknown
4:55 AM 23.0 °F - 20.8 °F 91% 29.70 in 10.0 mi Calm Calm - N/A   Unknown
5:15 AM 23.5 °F - 21.2 °F 91% 29.70 in 10.0 mi Calm Calm - N/A   Unknown
5:35 AM 23.9 °F - 21.2 °F 89% 29.70 in 10.0 mi Calm Calm - N/A   Unknown
5:55 AM 23.9 °F - 21.2 °F 89% 29.69 in 10.0 mi Calm Calm - N/A   Unknown
6:15 AM 24.3 °F - 21.6 °F 89% 29.69 in 10.0 mi Calm Calm - N/A   Unknown
6:35 AM 24.3 °F - 21.6 °F 89% 29.68 in 10.0 mi Calm Calm - N/A   Unknown
6:55 AM 23.9 °F - 21.6 °F 91% 29.68 in 10.0 mi Calm Calm - N/A   Unknown
7:15 AM 23.9 °F - 21.6 °F 91% 29.68 in 10.0 mi Calm Calm - N/A   Unknown
7:35 AM 23.5 °F - 21.2 °F 91% 29.68 in 10.0 mi Calm Calm - N/A   Unknown
7:55 AM 23.2 °F - 21.2 °F 92% 29.67 in 10.0 mi Calm Calm - N/A   Unknown
8:15 AM 23.4 °F - 21.2 °F 91% 29.67 in 10.0 mi Calm Calm - N/A   Unknown
8:35 AM 23.7 °F - 21.2 °F 90% 29.67 in 10.0 mi Calm Calm - N/A   Unknown
8:55 AM 24.1 °F - 21.7 °F 91% 29.67 in 10.0 mi Calm Calm - N/A   Unknown
9:15 AM 24.8 °F - 21.7 °F 88% 29.67 in 10.0 mi Calm Calm - N/A   Unknown
9:35 AM 25.9 °F - 22.3 °F 86% 29.66 in 10.0 mi Calm Calm - N/A   Unknown
9:55 AM 27.0 °F - 22.6 °F 84% 29.66 in 10.0 mi Calm Calm - N/A   Unknown
10:15 AM 28.2 °F - 23.0 °F 81% 29.65 in 10.0 mi Calm Calm - N/A   Unknown
10:35 AM 29.5 °F - 23.2 °F 77% 29.65 in 10.0 mi Calm Calm - N/A   Unknown
10:55 AM 32.0 °F - 24.3 °F 73% 29.65 in 10.0 mi Calm Calm - N/A   Unknown
11:15 AM 33.8 °F 30.8 °F 24.8 °F 70% 29.64 in 10.0 mi NE 3.5 mph - N/A   Unknown
11:35 AM 36.9 °F - 25.7 °F 64% 29.63 in 10.0 mi Calm Calm - N/A   Unknown
11:55 AM 37.0 °F - 25.7 °F 64% 29.63 in 10.0 mi Calm Calm - N/A   Unknown
12:15 PM 37.4 °F - 27.0 °F 66% 29.63 in 10.0 mi Calm Calm - N/A   Unknown
12:35 PM 39.6 °F - 27.3 °F 62% 29.63 in 10.0 mi Calm Calm - N/A   Unknown
12:55 PM 39.6 °F - 28.0 °F 63% 29.63 in 10.0 mi Calm Calm - N/A   Unknown
1:15 PM 42.4 °F - 30.4 °F 62% 29.63 in 10.0 mi Calm Calm - N/A   Unknown
1:35 PM 41.9 °F - 31.1 °F 66% 29.63 in 10.0 mi Calm Calm - N/A   Unknown
1:55 PM 41.0 °F 39.0 °F 31.1 °F 68% 29.63 in 10.0 mi West 3.5 mph - N/A   Light Drizzle
2:15 PM 40.6 °F 34.3 °F 33.4 °F 75% 29.64 in 1.8 mi WSW 10.4 mph 19.6 mph 0.04 in Rain Rain
2:35 PM 41.2 °F 39.2 °F 35.2 °F 79% 29.63 in 10.0 mi WSW 3.5 mph - 0.04 in   Unknown
2:55 PM 43.3 °F 39.9 °F 33.8 °F 69% 29.63 in 10.0 mi West 5.8 mph - 0.04 in   Unknown
3:15 PM 43.7 °F 40.3 °F 32.7 °F 65% 29.63 in 10.0 mi WSW 5.8 mph 16.1 mph N/A   Unknown
3:35 PM 44.6 °F 38.1 °F 31.5 °F 60% 29.63 in 10.0 mi WSW 13.8 mph 20.7 mph N/A   Unknown
3:55 PM 44.8 °F 39.9 °F 31.1 °F 59% 29.64 in 10.0 mi WSW 9.2 mph 21.9 mph N/A   Unknown
4:15 PM 44.2 °F 38.0 °F 30.9 °F 60% 29.65 in 10.0 mi West 12.7 mph 20.7 mph N/A   Unknown
4:35 PM 43.5 °F 38.3 °F 31.6 °F 63% 29.65 in 10.0 mi WSW 9.2 mph - N/A   Unknown
4:55 PM 43.7 °F 39.1 °F 30.9 °F 61% 29.66 in 10.0 mi West 8.1 mph 19.6 mph N/A   Unknown
5:15 PM 44.4 °F 39.0 °F 30.9 °F 59% 29.66 in 10.0 mi West 10.4 mph 19.6 mph N/A   Unknown
5:35 PM 44.2 °F 38.4 °F 30.2 °F 58% 29.67 in 10.0 mi West 11.5 mph 17.3 mph N/A   Unknown
5:55 PM 43.9 °F 35.9 °F 29.7 °F 57% 29.68 in 10.0 mi West 18.4 mph 27.6 mph N/A   Unknown
6:15 PM 43.0 °F 36.8 °F 28.2 °F 56% 29.69 in 10.0 mi West 11.5 mph 20.7 mph N/A   Unknown
6:35 PM 43.0 °F 36.8 °F 27.9 °F 55% 29.71 in 10.0 mi West 11.5 mph 21.9 mph N/A   Unknown
6:55 PM 42.8 °F 35.4 °F 26.8 °F 53% 29.71 in 10.0 mi West 15.0 mph 24.2 mph N/A   Unknown
7:15 PM 43.0 °F 35.1 °F 24.6 °F 48% 29.73 in 10.0 mi West 17.3 mph 34.5 mph N/A   Unknown
7:35 PM 42.1 °F 34.5 °F 25.3 °F 52% 29.74 in 10.0 mi West 15.0 mph 23.0 mph N/A   Unknown
7:55 PM 41.9 °F 35.0 °F 24.6 °F 50% 29.74 in 10.0 mi West 12.7 mph 16.1 mph N/A   Unknown
8:15 PM 41.9 °F 35.0 °F 23.4 °F 48% 29.74 in 10.0 mi West 12.7 mph 24.2 mph N/A   Unknown
8:35 PM 41.4 °F 33.3 °F 22.8 °F 48% 29.75 in 10.0 mi West 16.1 mph 24.2 mph N/A   Unknown
8:55 PM 40.6 °F 33.4 °F 23.0 °F 49% 29.76 in 10.0 mi West 12.7 mph 25.3 mph N/A   Unknown
9:15 PM 40.1 °F 32.0 °F 24.1 °F 53% 29.76 in 10.0 mi West 15.0 mph 25.3 mph N/A   Unknown
9:35 PM 39.0 °F 32.3 °F 26.1 °F 60% 29.77 in 10.0 mi WSW 10.4 mph 20.7 mph N/A   Unknown
9:55 PM 37.9 °F 30.5 °F 26.2 °F 63% 29.77 in 10.0 mi West 11.5 mph 17.3 mph N/A   Unknown
10:15 PM 37.4 °F 29.8 °F 26.6 °F 65% 29.77 in 10.0 mi West 11.5 mph 21.9 mph N/A   Unknown
10:35 PM 36.7 °F 31.2 °F 25.9 °F 65% 29.78 in 10.0 mi WSW 6.9 mph - N/A   Unknown
10:55 PM 36.9 °F 31.4 °F 22.8 °F 57% 29.79 in 10.0 mi West 6.9 mph 16.1 mph N/A   Unknown
11:15 PM 36.9 °F 28.2 °F 20.1 °F 51% 29.80 in 10.0 mi West 13.8 mph 21.9 mph N/A   Unknown
11:35 PM 36.5 °F 27.0 °F 20.3 °F 52% 29.80 in 10.0 mi West 16.1 mph 33.4 mph N/A   Unknown
11:55 PM 32.9 °F 22.8 °F 27.5 °F 81% 29.82 in 2.0 mi West 15.0 mph 26.5 mph N/A Snow Light Snow